Location: San Antonio
(29.4240°N, 98.4930°W)
Time: 02:18:28
(UTC-05:00)

DUCHIFAT 1 - Pass Details

Date: 10 August 2024
Orbit: 522 x 542 km, 98.1° (Epoch: 15 September)

Event Time Altitude Azimuth Distance (km) Brightness Sun altitude
Rises 06:01:53 0° 22° (NNE) 2,724 ? -12.5°
Reaches altitude 10° 06:04:10 10° 32° (NNE) 1,822 ? -12.1°
Maximum altitude 06:07:48 36° 99° (E) 880 ? -11.3°
Drops below altitude 10° 06:11:23 10° 166° (SSE) 1,796 ? -10.6°
Sets 06:13:36 0° 175° (S) 2,677 ? -10.2°
